Location: Peterborough
(44.3091°N, 78.3197°W)
Time: 17:06:30
(UTC-04:00)

Transit 4A - Pass Details

Date: 31 March 2023
Orbit: 864 x 980 km, 66.8° (Epoch: 04 June)

Event Time Altitude Azimuth Distance (km) Brightness Sun altitude
Rises 07:57:11 0° 255° (WSW) 3,448 10.3 10.0°
Reaches altitude 10° 08:00:11 10° 270° (W) 2,523 9.6 10.5°
Maximum altitude 08:04:43 23° 321° (NW) 1,805 9.1 11.3°
Drops below altitude 10° 08:09:21 10° 12° (NNE) 2,580 10.4 12.2°
Sets 08:12:28 0° 27° (NNE) 3,545 11.2 12.7°
